Flight Track Log - Related Links

Times and Time Zones

All times are in EDT time to prevent confusion due to time zone crossing. See the GJS6221 flight status page for this flight to view local times or setup timezone preferences in your user account.

Time Position Orientation Groundspeed Altitude Reporting Facility
EDT Latitude Longitude Course Direction KTS MPH feet Rate Location/Type
Wed 02:23:28 PM 44.3819 -73.1489 196° South 200 230 6,600  Level Boston Center
Wed 02:24:28 PM 44.3297 -73.1686 195° South 200 230 9,300 2,050 Climbing Boston Center
Wed 02:25:28 PM 44.2650 -73.1967 197° South 228 262 10,700 1,650 Climbing Boston Center
Wed 02:26:28 PM 44.1858 -73.2275 196° South 277 319 12,600 2,100 Climbing Boston Center
Wed 02:27:28 PM 44.1000 -73.2639 197° South 312 359 14,900 2,150 Climbing Boston Center
Wed 02:28:00 PM 43.9287 -73.3552 196° South  Level FlightAware Approximate
Wed 02:28:28 PM 44.0103 -73.3003 196° South 336 387 16,900  Level Boston Center
Wed 02:29:28 PM 43.9139 -73.3392 196° South 354 407 19,100 1,950 Climbing Boston Center
Wed 02:30:28 PM 43.8158 -73.3808 197° South 360 414 20,800 1,850 Climbing Boston Center
Wed 02:31:28 PM 43.7153 -73.4225 197° South 367 422 22,800 1,750 Climbing Boston Center
Wed 02:32:28 PM 43.6108 -73.4608 195° South 373 429 24,300 1,450 Climbing Boston Center
Wed 02:33:28 PM 43.5064 -73.4992 195° South 384 442 25,700 850 Climbing Boston Center
Wed 02:34:28 PM 43.3994 -73.5458 198° South 397 457 26,000 150 Climbing Boston Center
Wed 02:35:28 PM 43.2908 -73.5897 196° South 403 464 26,000 -250 Level Boston Center
Wed 02:36:28 PM 43.1842 -73.6303 195° South 403 464 25,500 -550 Descending Boston Center
Wed 02:37:28 PM 43.0878 -73.6711 197° South 403 464 24,900 -550 Descending Boston Center
Wed 02:38:28 PM 42.9853 -73.7117 196° South 403 464 24,400 -500 Descending Boston Center
Wed 02:39:28 PM 42.8806 -73.7547 197° South 403 464 23,900 -500 Descending Boston Center
Wed 02:40:28 PM 42.7781 -73.7922 195° South 397 457 23,400 -750 Descending Boston Center
Wed 02:41:28 PM 42.6656 -73.7869 178° South 397 457 22,400 -1,050 Descending Boston Center
Wed 02:42:28 PM 42.5511 -73.7675 173° South 383 441 21,300 -1,050 Descending Boston Center
Wed 02:43:28 PM 42.4469 -73.7456 171° South 383 441 20,300 -1,000 Descending Boston Center
Wed 02:44:28 PM 42.3431 -73.7239 171° South 383 441 19,300 -650 Descending Boston Center
Wed 02:45:28 PM 42.2433 -73.7022 171° South 383 441 19,000 -150 Descending Boston Center
Wed 02:46:28 PM 42.1456 -73.6806 171° South 371 427 19,000  Level Boston Center
Wed 02:47:28 PM 42.0478 -73.6592 171° South 366 421 19,000 -350 Level Boston Center
Wed 02:48:28 PM 41.9583 -73.6406 171° South 366 421 18,300 -1,200 Descending Boston Center
Wed 02:49:28 PM 41.8544 -73.6164 170° South 361 415 16,600 -1,550 Descending Boston Center
Wed 02:50:28 PM 41.7647 -73.6258 184° South 339 390 15,200 -1,300 Descending Boston Center
Wed 02:51:28 PM 41.7181 -73.7167 235° Southwest 290 334 14,000 -600 Descending Boston Center
Wed 02:52:28 PM 41.6794 -73.7908 235° Southwest 263 303 14,000  Level Boston Center
Wed 02:53:28 PM 41.6269 -73.8314 210° Southwest 222 255 14,000  Level Boston Center
Wed 02:54:28 PM 41.5622 -73.8494 192° South 228 262 14,000  Level Boston Center
Wed 02:55:28 PM 41.4972 -73.8675 192° South 243 280 14,000  Level Boston Center
Wed 02:56:28 PM 41.4283 -73.8853 191° South 243 280 14,000  Level Boston Center
Wed 02:57:28 PM 41.4025 -73.9456 240° Southwest 195 224 14,000 -400 Level Boston Center
Wed 02:58:28 PM 41.4519 -73.9828 331° Northwest 158 182 13,200 -500 Descending Boston Center
Wed 02:59:28 PM 41.5253 -73.9650 10° North 216 249 13,000 -100 Descending Boston Center
Wed 03:00:28 PM 41.5942 -73.9500 North 241 277 13,000  Level Boston Center
Wed 03:01:28 PM 41.6492 -73.8931 38° Northeast 247 284 13,000  Level Boston Center
Wed 03:02:40 PM 41.5997 -73.8419 142° Southeast 141 162 13,000  Level Boston Center
Wed 03:03:40 PM 41.5286 -73.8597 191° South 139 160 13,000  Level Boston Center
Wed 03:04:40 PM 41.4700 -73.8753 191° South 206 237 13,000  Level Boston Center
Wed 03:05:40 PM 41.4050 -73.9069 200° South 241 277 13,000  Level Boston Center
Wed 03:06:40 PM 41.4106 -73.9733 276° West 185 213 13,000  Level Boston Center
Wed 03:07:40 PM 41.4792 -73.9806 355° North 144 166 13,000  Level Boston Center
Wed 03:08:40 PM 41.5419 -73.9656 10° North 211 243 13,000  Level Boston Center
Wed 03:09:40 PM 41.6192 -73.9453 11° North 250 288 13,000  Level Boston Center
Wed 03:10:40 PM 41.6514 -73.8736 59° Northeast 231 266 13,000  Level Boston Center
Wed 03:11:40 PM 41.5892 -73.8444 161° South 166 191 13,000  Level Boston Center
Wed 03:12:40 PM 41.5308 -73.8600 191° South 212 244 13,000  Level Boston Center
Wed 03:13:40 PM 41.4597 -73.8778 191° South 244 281 13,000  Level Boston Center
Wed 03:14:40 PM 41.4072 -73.9042 201° Southwest 233 268 13,000  Level Boston Center
Wed 03:15:40 PM 41.4189 -73.9764 282° West 172 198 13,000  Level Boston Center
Wed 03:16:40 PM 41.4792 -73.9750 North 155 178 13,000  Level Boston Center
Wed 03:17:40 PM 41.5544 -73.9575 10° North 197 227 13,000  Level Boston Center
Wed 03:18:40 PM 41.6172 -73.9422 10° North 238 274 13,000  Level Boston Center
Wed 03:19:40 PM 41.6414 -73.8511 70° East 219 252 13,000  Level Boston Center
Wed 03:20:40 PM 41.5850 -73.8444 175° South 152 175 13,000  Level Boston Center
Wed 03:21:40 PM 41.5142 -73.8622 191° South 220 253 13,000  Level Boston Center
Wed 03:22:40 PM 41.4556 -73.8775 191° South 235 270 13,000  Level Boston Center
Wed 03:23:40 PM 41.3986 -73.9206 210° Southwest 220 253 13,000  Level Boston Center
Wed 03:24:40 PM 41.4272 -73.9739 306° West 156 180 13,000 -500 Level Boston Center
Wed 03:25:40 PM 41.5000 -73.9700 North 174 200 12,000 -500 Descending Boston Center
Wed 03:26:40 PM 41.5628 -73.9522 12° North 230 265 12,000 -150 Level Boston Center
Wed 03:27:40 PM 41.6361 -73.9261 15° North 247 284 11,700 -500 Descending Boston Center
Wed 03:28:40 PM 41.6414 -73.8539 84° East 230 265 11,000 -450 Descending Boston Center
Wed 03:29:40 PM 41.5642 -73.8494 178° South 172 198 10,800 -320 Descending Boston Center
Wed 03:29:55 PM 41.5500 -73.8500 182° South 234 269 10,600 -1,120 Descending New York TRACON
Wed 03:30:55 PM 41.4833 -73.8667 191° South 231 266 9,400 -800 Descending New York TRACON
Wed 03:31:55 PM 41.4167 -73.8833 191° South 227 261 9,000 -750 Descending New York TRACON
Wed 03:32:55 PM 41.3667 -73.8333 143° Southeast 253 291 7,900 -1,150 Descending New York TRACON
Wed 03:33:55 PM 41.3167 -73.7667 135° Southeast 243 280 6,700 -1,200 Descending New York TRACON
Wed 03:34:55 PM 41.2667 -73.7167 143° Southeast 229 264 5,500 -850 Descending New York TRACON
Wed 03:35:55 PM 41.2167 -73.6833 153° Southeast 223 257 5,000 -550 Descending New York TRACON
Wed 03:36:55 PM 41.1500 -73.6500 159° South 211 243 4,400 -500 Descending New York TRACON
Wed 03:37:55 PM 41.1000 -73.6500 180° South 206 237 4,000 -200 Descending New York TRACON
Wed 03:38:55 PM 41.0500 -73.6667 194° South 206 237 4,000  Level New York TRACON

Login

Don't have an account? Register now (free) for customized features, flight alerts, and more!